Tracking 19651 objects as of 23-Apr-2019
HD Live streaming from Space Station
objects crossing your sky now

SCOUT G-1 DEB

Track SCOUT G-1 DEB now!
10-day predictions


NORAD ID: 19181
Int'l Code: 1988-033G
Perigee: 996.1 km
Apogee: 1,378.3 km
Inclination: 89.9 °
Period: 109.0 minutes
Semi major axis: 7558 km
RCS: 0.0549 m2 (small)
Launch date: April 26, 1988
Source: United States (US)
Launch site: AIR FORCE WESTERN TEST RANGE (AFWTR)

Note: This is SATELLITE DEBRIS
aabbcc
Your satellite tracking list
Your tracking list is empty




NASA's NSSDC Master Catalog

Two Line Element Set (TLE):
1 19181U 88033G   19112.80646001 +.00000016 +00000-0 +98470-5 0  9991
2 19181 089.8814 313.9610 0252804 101.8929 019.1037 13.21214883492250
Source of the keplerian elements: AFSPC